{"data":{"norad_id":59304,"epoch":"2026-09-21T03:10:17.549184Z","epoch_age_seconds":107635,"freshness":"FRESH","line1":"1 59304U 24056J   26264.13214756 -.00000232  00000+0  10779-5 0  9993","line2":"2 59304  43.0017 200.1227 0000672 259.0256 101.0520 15.27577430141125","mean_motion":15.2757743,"eccentricity":6.72e-5,"inclination_deg":43.0017,"raan_deg":200.1227,"arg_perigee_deg":259.0256,"mean_anomaly_deg":101.052,"bstar":1.0779e-6,"rev_number":14112,"period_min":94.26690730826,"perigee_km":482.5957193322,"apogee_km":483.51786377779,"semimajor_km":6861.193791555,"source":"CELESTRAK","updated_at":"2026-09-22T09:00:48.876457Z"}}